Nome, AK

1:39 AM AKST on January 24, 2017 (GMT -0900)
Nome

Weather History for PAOM - November, 2011

Change the Weather History Date:

Saturday, November 5, 2011

  Actual Average Record
Temperature  
Mean Temperature 14 °F 20 °F  
Max Temperature 20 °F 26 °F 45 °F (2002)
Min Temperature 8 °F 14 °F -10 °F (1918)
Degree Days  
Heating Degree Days 51 45  
Month to date heating degree days 237 220  
Since 1 July heating degree days 2984 2870  
Cooling Degree Days 0 0  
Month to date cooling degree days 0 0  
Year to date cooling degree days 0 3  
Moisture  
Dew Point 4 °F    
Average Humidity 0    
Maximum Humidity 0    
Minimum Humidity 0    
Precipitation  
Precipitation 0.00 in 0.05 in 1.18 in (1943)
Month to date precipitation 0.04 0.22  
Year to date precipitation 15.83 14.73  
Snow  
Snow 0.00 in 0.40 in 4.10 in (1994)
Month to date snowfall 0.8 1.8  
Since 1 July snowfall 9.9 7.0  
Since 1 September snowfall 9.9 7.0  
Snow Depth 7.00 in    
Sea Level Pressure  
Sea Level Pressure 29.58 in    
Wind  
Wind Speed 11 mph (NE)    
Max Wind Speed 23 mph    
Max Gust Speed 29 mph    
Visibility 10 miles    
Events      
T = Trace of Precipitation, MM = Missing Value Source: NWS Daily Summary

Daily Weather History Graph

Daily Weather History Graph

Search for Another Location

Airport or City:

Trip Planner

Search our weather history database for the weather conditions in past years. The results will help you decide how hot, cold, wet, or windy it might be!

Date:

Astronomy

Nov. 05, 2011 Rise Set
Actual Time 11:00 AM AKDT 6:29 PM AKDT
Civil Twilight 10:04 AM AKDT 7:25 PM AKDT
Nautical Twilight 9:05 AM AKDT 8:23 PM AKDT
Astronomical Twilight 8:09 AM AKDT 9:19 PM AKDT
Moon 5:12 PM AKDT (11/5) 4:51 AM AKDT (11/5)
Length of Visible Light 9h 20m
Length of Day
7h 28m
Waxing Gibbous, 79% of the Moon is Illuminated
Nov 5
Waxing Gibbous
Nov 10
Full
Nov 18
Last Quarter
Nov 24
New
Dec 2
First Quarter

Hourly Weather History & Observations

Time (AKDT) Temp. Windchill Dew Point Humidity Pressure Visibility Wind Dir Wind Speed Gust Speed Precip Events Conditions
12:53 AM 16.0 °F 4.4 °F 5.0 °F 62% 29.86 in 10.0 mi ENE 9.2 mph - N/A   Clear
1:53 AM 17.1 °F 11.7 °F 7.0 °F 65% 29.87 in 10.0 mi ENE 3.5 mph - N/A   Clear
2:53 AM 10.9 °F 1.4 °F 3.9 °F 73% 29.85 in 10.0 mi NNE 5.8 mph - N/A   Clear
3:53 AM 12.9 °F 2.6 °F 3.9 °F 67% 29.83 in 10.0 mi NE 6.9 mph - N/A   Partly Cloudy
4:53 AM 14.0 °F 2.0 °F 3.9 °F 64% 29.81 in 10.0 mi NE 9.2 mph - N/A   Partly Cloudy
5:53 AM 12.0 °F 1.5 °F 3.0 °F 67% 29.79 in 10.0 mi NE 6.9 mph - N/A   Partly Cloudy
6:53 AM 16.0 °F 3.6 °F 6.1 °F 65% 29.77 in 10.0 mi NE 10.4 mph - N/A   Partly Cloudy
7:53 AM 17.1 °F 4.3 °F 5.0 °F 59% 29.75 in 10.0 mi ENE 11.5 mph - N/A   Scattered Clouds
8:53 AM 16.0 °F 3.6 °F 5.0 °F 62% 29.73 in 10.0 mi ENE 10.4 mph - N/A   Scattered Clouds
9:53 AM 16.0 °F 2.3 °F 3.9 °F 59% 29.69 in 10.0 mi NE 12.7 mph - N/A   Scattered Clouds
10:53 AM 16.0 °F 2.9 °F 3.0 °F 57% 29.66 in 10.0 mi NE 11.5 mph - N/A   Scattered Clouds
11:53 AM 14.0 °F -0.2 °F 1.9 °F 59% 29.63 in 10.0 mi NNE 12.7 mph - N/A   Scattered Clouds
12:53 PM 14.0 °F -0.2 °F 1.0 °F 56% 29.59 in 10.0 mi NNE 12.7 mph - N/A   Scattered Clouds
1:53 PM 17.1 °F 5.0 °F -0.0 °F 47% 29.54 in 10.0 mi NE 10.4 mph - N/A   Mostly Cloudy
2:53 PM 17.1 °F 4.3 °F 1.0 °F 50% 29.50 in 10.0 mi NNE 11.5 mph - N/A   Mostly Cloudy
3:53 PM 19.0 °F 6.8 °F -0.0 °F 43% 29.45 in 10.0 mi ENE 11.5 mph 18.4 mph N/A   Mostly Cloudy
4:53 PM 19.0 °F 4.5 °F 1.9 °F 47% 29.41 in 10.0 mi ENE 16.1 mph - N/A   Mostly Cloudy
5:53 PM 18.0 °F 4.8 °F 3.9 °F 54% 29.38 in 10.0 mi NE 12.7 mph - N/A   Mostly Cloudy
6:53 PM 19.0 °F 4.0 °F 5.0 °F 54% 29.35 in 10.0 mi NNE 17.3 mph 26.5 mph N/A   Mostly Cloudy
7:53 PM 19.0 °F 5.0 °F 5.0 °F 54% 29.32 in 10.0 mi North 15.0 mph 19.6 mph N/A   Mostly Cloudy
8:53 PM 19.0 °F 3.2 °F 3.9 °F 52% 29.30 in 10.0 mi NE 19.6 mph 24.2 mph N/A   Overcast
9:53 PM 18.0 °F 2.2 °F 5.0 °F 57% 29.28 in 10.0 mi NNE 18.4 mph - N/A   Overcast
10:53 PM 18.0 °F 5.4 °F 5.0 °F 57% 29.26 in 10.0 mi North 11.5 mph - N/A   Overcast
11:53 PM 19.0 °F 5.0 °F 3.9 °F 52% 29.25 in 10.0 mi NNE 15.0 mph - N/A   Overcast